User: anonymous   Login
Location: Enborne
(51.3833°N, 1.3667°W)
Time: 22:41:23
(UTC+00:00)
Language:

SL-14 R/B - Orbit

View from above orbital plane
View from above orbital plane
View from above satellite
View from above satellite

Ground track
Ground track

The orbit data is extracted from the following two-line orbital elements,

1 33505U 09003B   20327.85712273 +.00000724 +00000-0 +42442-4 0  9990
2 33505 082.3858 074.4909 0026394 189.6640 170.4085 15.09928553650118
Epoch (UTC): 22 November 2020 20:34:15
Eccentricity: 0.0026394
inclination: 82.3858°
perigee height: 518 km
apogee height: 554 km
right ascension of ascending node: 74.4909°
argument of perigee: 189.6640°
revolutions per day: 15.09928553
mean anomaly at epoch: 170.4085°
orbit number at epoch: 65011

The dashed part of the orbit path shows where the satellite is in the earth's shadow,  

DLR